Location: Wildcat Hills Observatory
(41.6350°N, 103.6812°W)
Time: 02:56:15
(UTC-06:00)

Daily predictions for brighter satellites

Satellite Brightness Start Highest point End
(mag) Time Altitude Azimuth Time Altitude Azimuth Time Altitude Azimuth
H-2A R/B 4.5 00:22:29 22° N 00:22:29 22° N 00:24:05 10° N
Cosmos 1943 Rocket 3.7 00:14:47 10° NW 00:17:39 30° NW 00:17:39 30° NW
ADEOS Rocket 3.6 01:03:27 10° N 01:08:56 57° N 01:08:56 57° N
Mayak 1.6 01:09:22 10° N 01:10:12 15° NNW 01:10:12 15° NNW
Cosmos 1833 Rocket 4.5 01:41:36 24° ENE 01:41:36 24° ENE 01:44:31 10° NE
Lacrosse 4 Rocket 4.1 01:38:59 10° N 01:41:22 19° NNE 01:41:22 19° NNE
Gbstr 26 Del rocket 4.4 01:59:09 77° NNW 01:59:09 77° NNW 02:06:21 10° NE
Lacrosse 5 rocket 4.0 02:11:25 16° ENE 02:11:25 16° ENE 02:12:21 10° NE
Cosmos 2034 Rocket 4.3 02:10:41 65° NNE 02:10:41 65° NNE 02:16:00 10° N
Cosmos 1867 4.5 02:09:17 10° NNW 02:13:49 46° NNE 02:13:49 46° NNE
Meteor 2-4 Rocket 4.4 02:21:42 47° N 02:21:42 47° N 02:25:29 10° N
Cosmos 1092 Rocket 4.5 02:15:42 10° N 02:21:47 52° ENE 02:22:10 51° E
CZ-2D R/B 3.2 02:24:07 10° NNE 02:28:39 38° E 02:28:39 38° E
Cosmos 2278 4.4 02:28:46 10° NNW 02:32:43 47° NNW 02:32:43 47° NNW
Cosmos 1980 Rocket 3.3 02:32:20 10° N 02:37:37 41° ENE 02:39:51 28° ESE
SL-16 R/B 2.8 02:36:53 58° ESE 02:37:46 64° ENE 02:43:57 10° N
Cosmos 1697 Rocket 3.0 02:34:27 10° NNW 02:39:27 65° NNE 02:39:27 65° NNE
Exosat Rocket 4.2 02:34:26 10° NNW 02:40:29 84° ENE 02:41:47 64° SSE
Cosmos 2082 Rocket 2.3 02:48:31 70° NNE 02:48:31 70° NNE 02:53:30 10° NNE
H-2A R/B 3.9 02:44:52 10° NNE 02:47:33 38° NNE 02:47:33 38° NNE
Nadezhda 4 Rocket 4.3 02:53:26 10° NNW 02:58:33 51° WNW 02:58:33 51° WNW
MOZ.5/SAFIR/RUBIN 5/SL-8 4.4 03:00:06 53° ENE 03:00:07 53° ENE 03:04:45 10° N
Resurs 1-4 Rocket 2.1 02:59:34 10° NNE 03:04:38 80° ENE 03:04:38 80° ENE
Cosmos 2322 Rocket 4.4 03:01:22 10° N 03:05:54 24° NE 03:10:22 10° ESE
ATLAS 3B R/B 4.1 03:03:31 24° SE 03:06:03 29° ESE 03:11:55 10° NE
Cosmos 1634 Rocket 3.8 03:09:33 75° SSW 03:10:08 86° W 03:16:27 10° N
IRS-P3 4.3 03:10:00 10° N 03:14:58 59° WNW 03:14:58 59° WNW
SL-08 R/B 4.1 03:16:47 41° NW 03:16:47 41° NW 03:20:09 10° NNW
NPP 3.9 03:11:05 10° N 03:16:04 54° WNW 03:16:04 54° WNW
COSMOS 2487 4.3 03:18:57 30° NNE 03:18:57 30° NNE 03:20:50 10° NNE
Cosmos 1025 Rocket 3.9 03:19:49 42° NNW 03:19:49 42° NNW 03:22:49 10° N
Lacrosse 4 Rocket 3.9 03:16:54 10° NW 03:17:38 14° NW 03:17:38 14° NW
CBERS-1 4.4 03:16:19 10° N 03:20:52 50° NW 03:20:52 50° NW
Cosmos 2279 Rocket 4.1 03:21:32 47° SSE 03:23:25 73° E 03:29:39 10° NNE
Cosmos 1833 Rocket 3.3 03:23:18 41° WNW 03:23:28 41° WNW 03:28:49 10° N
Cosmos 2208 Rocket 3.8 03:27:00 78° WSW 03:27:16 81° WNW 03:32:33 10° NNE
USA 215 4.4 03:24:43 10° ENE 03:30:25 31° SE 03:32:57 24° SSE
Cosmos 1898 Rocket 3.5 03:25:27 10° NNW 03:30:41 78° ENE 03:32:40 39° SSE
Cosmos 2026 Rocket 3.9 03:26:10 10° NNW 03:32:31 72° W 03:34:02 53° SSW
Cosmos 44 4.5 03:29:38 10° NNW 03:34:40 46° NE 03:39:50 10° SE
Iridium 4 Rocket 4.3 03:40:35 30° NW 03:40:35 30° NW 03:43:34 10° NNW
Cosmos 1766 3.5 03:36:26 10° N 03:40:18 66° E 03:40:19 66° E
Cosmos 1937 Rocket 3.7 03:35:42 10° NNW 03:40:54 69° ENE 03:45:29 13° SSE
Cosmos 1570 Rocket 4.2 03:40:35 53° W 03:41:01 54° WNW 03:46:14 10° N
Cosmos 858 Rocket 4.4 03:40:22 10° NNW 03:45:36 86° ENE 03:48:48 24° SSE
Cosmos 1356 Rocket 3.8 03:47:07 50° NW 03:47:07 50° NW 03:50:32 10° N
Lacrosse 5 rocket 2.9 03:47:04 25° NW 03:47:38 26° NNW 03:51:07 10° NNE
Cosmos 2360 4.2 03:42:37 10° NNW 03:48:10 56° WSW 03:49:02 51° SW
Cosmos 724 4.1 03:48:14 50° SSW 03:49:51 89° SE 03:55:41 10° NNE
ARIANE 5 R/B 2.7 03:47:54 10° N 03:53:03 58° WNW 03:54:03 49° WSW
Cosmos 468 Rocket 4.1 03:52:17 52° WSW 03:53:19 63° WNW 03:58:37 10° NNE
Spot 4 Rocket 4.2 03:48:57 10° N 03:53:59 54° WNW 03:54:53 48° WSW
Timation 2 Rocket 3.9 03:52:40 36° S 03:55:14 73° ESE 04:01:12 10° NNE
Cosmos 990 Rocket 3.8 03:50:50 10° NNW 03:56:00 88° WSW 04:00:29 14° SSE
Cosmos 1814 Rocket 3.9 04:01:04 43° SSW 04:02:47 87° WNW 04:08:00 10° NNE
Helios 1A Rocket 3.0 03:59:11 10° N 04:03:16 56° WNW 04:03:39 54° W
Cosmos 44 Rocket 4.1 03:58:44 10° NNW 04:03:47 55° NE 04:08:52 10° SE
CZ-2D R/B 3.3 04:00:48 10° N 04:04:52 72° WNW 04:05:37 56° SW
Cosmos 2266 Rocket 4.1 04:01:45 10° N 04:07:50 74° E 04:13:59 10° SSE
USA 238 DEB 3.7 04:05:07 31° SSW 04:08:40 83° ESE 04:15:39 10° NE
USA 238 3.7 04:05:12 31° SSW 04:08:46 83° ESE 04:15:46 10° NE
CZ-2D R/B 3.2 04:04:29 10° N 04:09:00 28° WNW 04:09:59 26° W
Cosmos 1655 Rocket 4.1 04:03:09 10° NNW 04:09:22 56° W 04:12:48 27° SSW
Cosmos 2150 Rocket 4.0 04:04:27 10° NNW 04:09:58 90° ENE 04:15:25 10° SSE
Cosmos 1726 Rocket 3.8 04:08:19 10° NNW 04:12:25 43° W 04:12:35 43° W
DNEPR-1 R/B 4.4 04:11:12 26° S 04:13:06 43° ESE 04:17:21 10° NE
Cosmos 2298 Rocket 3.9 04:11:52 10° NNW 04:17:11 70° WSW 04:22:26 10° S
Meteor 1-21 4.2 04:15:47 28° SSW 04:18:51 72° W 04:24:28 10° N
Cosmos 2360 Rocket 3.7 04:13:52 10° N 04:19:05 38° ENE 04:24:18 10° SE
BREEZE-M R/B 2.8 04:18:18 47° W 04:19:12 76° NNW 04:24:50 10° ENE
Cosmos 1980 Rocket 3.0 04:16:40 10° NW 04:21:24 29° WSW 04:21:31 29° WSW
SL-16 R/B 3.8 04:21:58 21° W 04:21:58 21° W 04:26:22 10° NW
UNKNOWN OBJECT B 3.5 04:25:05 10° N 04:28:37 35° WNW 04:29:16 32° W
Cosmos 1812 Rocket 4.3 04:25:06 10° N 04:29:31 55° E 04:33:52 10° SSE
ADEOS II 2.0 04:24:18 10° N 04:29:33 77° WNW 04:33:18 20° SSW
BREEZE-M DEB (TANK) 3.5 04:16:08 10° WNW 04:30:19 76° SW 04:34:02 10° SE
Meteor 2-11 Rocket 4.4 04:25:42 14° S 04:31:02 84° W 04:37:13 10° N
CZ-4B R/B 4.4 04:27:10 10° NNE 04:31:03 35° E 04:34:44 10° SSE
Cosmos 841 Rocket 3.5 04:28:29 27° SW 04:31:16 66° WNW 04:36:28 10° NNE
ADEOS 4.0 04:26:36 10° N 04:31:33 45° WNW 04:34:05 26° SW
Cosmos 2082 Rocket 4.1 04:30:21 12° WNW 04:32:47 15° NW 04:35:58 10° NNW
Cosmos 2058 Rocket 3.6 04:29:48 10° NNW 04:33:52 37° W 04:35:26 28° SW
Cosmos 1602 Rocket 3.5 04:30:58 17° S 04:34:16 87° E 04:38:37 10° N
SL-16 R/B 2.1 04:29:13 10° NNW 04:34:52 70° WSW 04:40:29 10° SSE
Cosmos 1470 3.2 04:31:31 10° N 04:35:30 64° E 04:39:24 10° SSE
Cosmos 2228 3.8 04:33:38 10° NNW 04:37:22 30° W 04:38:15 27° WSW
Resurs 1-4 Rocket 4.0 04:41:25 10° NNW 04:43:58 14° WNW 04:45:43 12° W
NOSS 3-2 (C) 3.8 04:40:41 13° SSW 04:45:52 64° ESE 04:52:16 10° NE
Cosmos 1626 Rocket 3.6 04:43:42 18° SSW 04:46:43 59° W 04:51:00 10° N
Cosmos 540 Rocket 3.4 04:42:44 16° SSW 04:46:56 83° WNW 04:52:07 10° NNE
Cosmos 2322 Rocket 2.3 04:44:47 10° NNW 04:50:16 54° WSW 04:55:42 10° S
Cosmos 1378 3.0 04:49:19 13° SSW 04:52:33 74° W 04:56:19 10° N
Cosmos 1707 2.8 04:48:51 10° S 04:52:42 79° E 04:56:37 10° N
SJ 16-02 1.3 04:48:38 10° NNW 04:53:04 89° ENE 04:57:30 10° SSE
Cosmos 292 Rocket 4.1 04:52:10 18° SW 04:55:28 48° WNW 05:00:08 10° N
ATLAS 3B R/B 3.0 04:50:48 17° SW 04:56:23 60° NW 05:03:14 10° NNE
ATLAS CENTAUR R/B 2.6 04:53:56 10° NNW 04:58:14 50° NE 05:02:46 10° SE
Cosmos 1833 4.3 04:52:52 10° SSW 04:58:41 83° ESE 05:04:29 10° NNE
NOSS 3-2 (A) 3.5 04:57:37 15° SW 05:02:39 74° NW 05:09:14 10° NNE
MOS 1-B 4.4 04:57:39 10° NNE 05:03:30 89° SE 05:09:19 10° SSW
Meteor 1-31 Rocket 3.9 05:05:19 10° NNE 05:09:03 45° E 05:12:44 10° S
Cosmos 1953 2.9 05:06:29 10° NNW 05:10:17 38° W 05:14:02 10° SSW
PSLV R/B 3.7 05:07:15 10° N 05:11:08 81° W 05:14:52 10° SSW
USA 215 3.4 05:07:13 10° NE 05:13:45 74° NW 05:20:15 10° WSW
CZ-4B R/B 3.9 05:10:05 10° NNE 05:15:35 57° E 05:20:55 10° S
Cosmos 44 4.4 05:11:20 10° NW 05:15:42 27° WSW 05:20:09 10° SSW
Cosmos 1400 Rocket 4.3 05:12:14 10° SSE 05:15:53 39° E 05:19:36 10° NNE
CENTAUR R/B 3.4 05:11:18 10° S 05:16:52 47° ESE 05:23:13 10° NE
Aureole 2 Rocket 2.7 05:17:30 10° NNW 05:21:12 51° WSW 05:24:39 10° S
Cosmos 1553 Rocket 4.2 05:17:53 10° S 05:24:18 87° E 05:30:45 10° N
PSLV R/B 3.6 05:21:51 11° SW 05:24:30 43° SSE 05:27:23 10° E
Meteor 1-28 Rocket 3.2 05:21:22 10° SSE 05:25:06 89° E 05:28:54 10° NNW
Cosmos 1125 Rocket 3.6 05:20:20 10° NNW 05:25:31 55° WSW 05:30:40 10° S
IDEFIX/ARIANE 42P 4.1 05:20:45 10° NNE 05:25:37 38° E 05:30:29 10° SSE
Meteor PRIRODA 3.8 05:24:04 10° NNE 05:27:46 79° ESE 05:31:29 10° S
CZ-4B R/B 4.0 05:25:47 10° NNE 05:29:36 79° E 05:33:34 10° S
Cosmos 2292 Rocket 3.0 05:26:47 10° N 05:30:28 81° E 05:33:30 10° S
Cosmos 2237 4.2 05:26:07 10° NNW 05:31:52 82° WSW 05:37:34 10° SSE
Cosmos-2242 3.7 05:28:01 10° N 05:32:16 61° E 05:36:28 10° SSE
ERBS 2.3 05:29:01 10° SW 05:32:23 88° NW 05:35:48 10° NE
Cosmos 2322 3.7 05:27:08 10° NNW 05:32:52 77° WSW 05:38:33 10° SSE
Okean O Rocket 1.6 05:29:09 10° N 05:33:31 80° WNW 05:37:51 10° SSW
CZ-4B DEB 4.3 05:31:28 10° NNE 05:37:02 80° WNW 05:42:33 10° SSW
